Location: Fernhill
(41.0167°S, 175.6333°E)
Time: 11:40:21
(UTC+00:00)

USA 59 Rocket - Pass Details

Date: 08 November 2025
Orbit: 370 x 1678 km, 63.3° (Epoch: 10 December)

Event Time Altitude Azimuth Distance (km) Brightness Sun altitude
Rises 09:13:17 0° 232° (SW) 4,924 6.2 -20.4°
Reaches altitude 10° 09:17:48 10° 215° (SW) 3,975 5.3 -21.0°
Maximum altitude 09:24:51 20° 172° (S) 3,174 4.1 -21.9°
Drops below altitude 10° 09:31:28 10° 128° (SE) 3,704 4.0 -22.7°
Sets 09:35:27 0° 112° (ESE) 4,496 4.3 -23.1°
